KC1AWV Weather Reports


Display with metric or nautical units.
time (UTC)temp
F
wind
direction
speed
MPH
gust
MPH
rain 1hr
in
rain 24hr
in
rain mn
in
humidity
%
barometer
mb
20260905234239 0 0.0 0.0 0.00 0.04 0.04 1012.8
20260905233331 0 0.0 0.0 0.00 0.04 0.04 1012.6
20260905232239 0 0.0 0.0 0.00 0.04 0.04 1012.6
20260905231231 0 0.0 0.0 0.00 0.04 0.04 1012.7
20260905230238 0 0.0 0.0 0.00 0.04 0.04 1012.6
20260905225231 0 0.0 0.0 0.00 0.04 0.04 1012.6
20260905224238 0 0.0 0.0 0.00 0.04 0.04 1012.6
20260905223230 0 0.0 0.0 0.00 0.04 0.04 1012.4
20260905222237 0 0.0 0.0 0.00 0.04 0.04 1012.3
20260905221249 0 0.0 0.0 0.00 0.04 0.04 1012.3
20260905220237 0 0.0 0.0 0.00 0.04 0.04 1012.2
20260905215229 65 34 1.0 1.0 0.00 0.04 0.04 93 1012.0
20260905214237 65 0.0 0.0 0.00 0.04 0.04 93 1011.8
20260905213228 65 348 0.0 1.0 0.00 0.04 0.04 94 1011.9
20260905212316 0 0.0 0.0 0.00 0.04 0.04 1011.7
20260905211228 0 0.0 0.0 0.00 0.04 0.04 1011.8
20260905210236 66 33 0.0 1.0 0.00 0.04 0.04 94 1011.7
20260905205227 66 33 0.0 1.0 0.00 0.04 0.04 94 1011.6
20260905204235 65 0.0 0.0 0.00 0.04 0.04 95 1011.6
20260905203227 0 0.0 0.0 0.00 0.04 0.04 1011.6
20260905202235 65 0.0 0.0 0.00 0.04 0.04 94 1011.6
20260905201226 65 0.0 0.0 0.00 0.04 0.04 96 1011.6
20260905200234 65 0.0 0.0 0.01 0.04 0.04 97 1011.6
20260905195226 65 0.0 0.0 0.01 0.04 0.04 97 1011.5
20260905194234 64 0.0 0.0 0.01 0.04 0.04 98 1011.4
20260905193241 64 0.0 0.0 0.04 0.04 0.04 98 1011.5
20260905192233 64 0.0 0.0 0.04 0.04 0.04 97 1011.5
20260905191241 63 0.0 0.0 0.04 0.04 0.04 97 1011.6
20260905190233 64 153 0.0 1.0 0.03 0.03 0.03 97 1011.6
20260905185240 64 153 0.0 1.0 0.03 0.03 0.03 96 1011.3
20260905184232 66 2 1.0 3.0 0.03 0.03 0.03 90 1011.3
20260905183300 71 36 1.0 3.0 0.00 0.00 0.00 76 1010.8
20260905182231 70 21 0.0 1.0 0.00 0.00 0.00 77 1010.7
20260905181239 70 27 0.0 2.0 0.00 0.00 0.00 76 1010.7
20260905180251 70 18 0.0 1.0 0.00 0.00 0.00 77 1010.9
20260905175239 71 38 0.0 2.0 0.00 0.00 0.00 74 1010.7
20260905174231 70 32 0.0 1.0 0.00 0.00 0.00 78 1010.9
20260905173238 69 12 0.0 1.0 0.00 0.00 0.00 79 1010.9
20260905172230 69 38 1.0 2.0 0.00 0.00 0.00 81 1010.9
20260905171238 69 46 0.0 2.0 0.00 0.00 0.00 81 1010.9
20260905170230 68 36 0.0 1.0 0.00 0.00 0.00 81 1010.9
20260905165237 68 0.0 0.0 0.00 0.00 0.00 83 1011.1
20260905164229 67 37 0.0 1.0 0.00 0.00 0.00 84 1011.0
20260905163237 69 38 0.0 2.0 0.00 0.00 0.00 80 1011.1
20260905162229 68 25 0.0 1.0 0.00 0.00 0.00 76 1010.9
20260905161236 68 27 0.0 1.0 0.00 0.00 0.00 78 1011.0
20260905160228 68 24 0.0 1.0 0.00 0.00 0.00 78 1011.1
20260905155236 69 20 1.0 2.0 0.00 0.00 0.00 77 1011.0
20260905154228 69 32 0.0 1.0 0.00 0.00 0.00 77 1010.9
20260905153236 69 0.0 0.0 0.00 0.00 0.00 79 1010.9
20260905152227 69 0.0 0.0 0.00 0.00 0.00 80 1010.9
20260905151235 69 0.0 0.0 0.00 0.00 0.00 80 1010.9
20260905150226 68 27 0.0 1.0 0.00 0.00 0.00 79 1010.9
20260905145234 68 0.0 0.0 0.00 0.00 0.00 81 1010.9
20260905144226 68 0.0 0.0 0.00 0.00 0.00 82 1010.8
20260905143234 68 0.0 0.0 0.00 0.00 0.00 83 1010.9
20260905142225 68 0.0 0.0 0.00 0.00 0.00 84 1010.9
20260905141233 0 0.0 0.0 0.00 0.00 0.00 1010.7
20260905140225 68 26 0.0 1.0 0.00 0.00 0.00 82 1010.7
20260905135253 68 26 0.0 1.0 0.00 0.00 0.00 82 1010.6
20260905134241 67 0.0 0.0 0.00 0.00 0.00 85 1010.6
20260905133232 68 0.0 0.0 0.00 0.00 0.00 84 1010.4
20260905132240 67 33 0.0 1.0 0.00 0.00 0.00 83 1010.3
20260905131232 68 0.0 0.0 0.00 0.00 0.00 85 1010.2
20260905130240 67 172 0.0 1.0 0.00 0.00 0.00 83 1010.3
20260905125231 66 0.0 0.0 0.00 0.00 0.00 86 1010.3
20260905124259 64 0.0 0.0 0.00 0.00 0.00 92 1010.0
20260905123231 64 0.0 0.0 0.00 0.00 0.00 92 1010.0
20260905122239 63 0.0 0.0 0.00 0.00 0.00 95 1009.9
20260905121230 63 0.0 0.0 0.00 0.00 0.00 97 1009.9
20260905120238 62 0.0 0.0 0.00 0.02 0.00 99 1010.0
20260905115230 61 0.0 0.0 0.00 0.02 0.00 99 1010.0
20260905114238 61 0.0 0.0 0.00 0.02 0.00 99 1009.9
20260905113230 60 0.0 0.0 0.00 0.02 0.00 99 1009.7
20260905112257 60 0.0 0.0 0.00 0.02 0.00 99 1009.7
20260905111309 0 0.0 0.0 0.00 0.02 0.00 1009.6
20260905110237 0 0.0 0.0 0.00 0.02 0.00 1009.5
20260905105228 59 0.0 0.0 0.00 0.02 0.00 99 1009.3
20260905104236 0 0.0 0.0 0.00 0.02 0.00 1009.2
20260905103228 0 0.0 0.0 0.00 0.02 0.00 1009.2
20260905102236 0 0.0 0.0 0.00 0.02 0.00 1008.9
20260905101228 0 0.0 0.0 0.00 0.02 0.00 1008.9
20260905100236 59 0.0 0.0 0.00 0.02 0.00 99 1008.9
20260905095227 59 0.0 0.0 0.00 0.02 0.00 99 1008.6
20260905094235 59 0.0 0.0 0.00 0.02 0.00 99 1008.7
20260905093226 59 0.0 0.0 0.00 0.02 0.00 99 1008.6
20260905092234 59 0.0 0.0 0.00 0.02 0.00 99 1008.6
20260905091226 59 0.0 0.0 0.00 0.02 0.00 99 1008.6
20260905090234 59 0.0 0.0 0.00 0.02 0.00 99 1008.4
20260905085225 0 0.0 0.0 0.00 0.02 0.00 1008.4
20260905084233 60 0.0 0.0 0.00 0.02 0.00 99 1008.6
20260905083225 60 0.0 0.0 0.00 0.02 0.00 99 1008.4
20260905082233 60 0.0 0.0 0.00 0.02 0.00 99 1008.5
20260905081224 60 0.0 0.0 0.00 0.02 0.00 99 1008.4
20260905080232 0 0.0 0.0 0.00 0.02 0.00 1008.5
20260905075240 0 0.0 0.0 0.00 0.02 0.00 1008.6
20260905074232 60 0.0 0.0 0.00 0.02 0.00 98 1008.5
20260905073239 60 0.0 0.0 0.00 0.02 0.00 98 1008.6
20260905072231 60 0.0 0.0 0.00 0.02 0.00 98 1008.7
20260905071239 60 0.0 0.0 0.00 0.02 0.00 98 1008.6
20260905070231 61 0.0 0.0 0.00 0.02 0.00 97 1008.6
20260905065259 61 0.0 0.0 0.00 0.02 0.00 98 1008.7
20260905064230 61 0.0 0.0 0.00 0.02 0.00 98 1008.8
20260905063238 61 0.0 0.0 0.00 0.02 0.00 98 1008.7
20260905062230 61 0.0 0.0 0.00 0.02 0.00 97 1008.9
20260905061238 62 0.0 0.0 0.00 0.02 0.00 97 1008.9
20260905060309 62 0.0 0.0 0.00 0.02 0.00 97 1008.9
20260905055237 62 0.0 0.0 0.00 0.02 0.00 97 1008.9
20260905054229 62 0.0 0.0 0.00 0.02 0.00 97 1008.9
20260905053257 0 0.0 0.0 0.00 0.02 0.00 1008.9
20260905052228 62 0.0 0.0 0.00 0.02 0.00 97 1008.9
20260905051236 62 0.0 0.0 0.00 0.02 0.00 97 1008.9
20260905050228 62 0.0 0.0 0.00 0.02 0.00 96 1008.9
20260905045236 62 0.0 0.0 0.00 0.02 0.00 96 1008.9
20260905044227 0 0.0 0.0 0.00 0.02 0.00 1008.9
20260905043236 0 0.0 0.0 0.00 0.02 0.00 1009.0
20260905042247 63 0.0 0.0 0.00 0.02 0.00 93 1008.9
20260905041235 0 0.0 0.0 0.00 0.02 0.00 1008.7
20260905040226 0 0.0 0.0 0.00 0.02 0.00 1008.9
20260905035254 0 0.0 0.0 0.00 0.02 0.02 1008.9
20260905034248 0 0.0 0.0 0.00 0.02 0.02 1008.9
20260905033234 0 0.0 0.0 0.00 0.02 0.02 1008.9
20260905032225 0 0.0 0.0 0.00 0.02 0.02 1008.9
20260905031313 0 0.0 0.0 0.00 0.02 0.02 1009.0
20260905030245 0 0.0 0.0 0.00 0.02 0.02 1008.9
20260905025233 0 0.0 0.0 0.00 0.02 0.02 1009.0
20260905024225 0 0.0 0.0 0.00 0.02 0.02 1009.0
20260905023232 0 0.0 0.0 0.00 0.02 0.02 1009.0
20260905022224 0 0.0 0.0 0.00 0.08 0.02 1009.2
20260905021312 66 0.0 0.0 0.00 0.20 0.02 92 1009.2
20260905020239 66 0.0 0.0 0.00 0.20 0.02 92 1009.2
20260905015231 66 0.0 0.0 0.00 0.20 0.02 92 1009.5
20260905014239 66 0.0 0.0 0.00 0.20 0.02 92 1009.5
20260905013231 66 0.0 0.0 0.00 0.20 0.02 92 1009.6
20260905012238 0 0.0 0.0 0.00 0.20 0.02 1009.7
20260905011230 0 0.0 0.0 0.00 0.20 0.02 1009.6
20260905010238 68 0.0 0.0 0.00 0.20 0.02 86 1009.4
20260905005230 68 0.0 0.0 0.00 0.20 0.02 85 1009.3
20260905004258 0 0.0 0.0 0.00 0.20 0.02 1009.2
20260905003229 0 0.0 0.0 0.00 0.20 0.02 1009.4
20260905002237 0 0.0 0.0 0.00 0.20 0.02 1009.4
20260905001229 0 0.0 0.0 0.00 0.20 0.02 1009.4
20260905000237 0 0.0 0.0 0.00 0.20 0.02 1009.4
20260904235228 0 0.0 0.0 0.00 0.20 0.02 1009.2